Year,Month,Day,Hour,Minute,Value (Times are PST for insolation in W/m^2)
2012,12,23,00,00,0.00
2012,12,23,00,01,0.00
2012,12,23,00,02,0.00
2012,12,23,00,03,0.00
2012,12,23,00,04,0.00
2012,12,23,00,05,0.00
2012,12,23,00,06,0.00
2012,12,23,00,07,0.00
2012,12,23,00,08,0.00
2012,12,23,00,09,0.00
2012,12,23,00,10,0.00
2012,12,23,00,11,0.00
2012,12,23,00,12,0.00
2012,12,23,00,13,0.00
2012,12,23,00,14,0.00
2012,12,23,00,15,0.00
2012,12,23,00,16,0.00
2012,12,23,00,17,0.00
2012,12,23,00,18,0.00
2012,12,23,00,19,0.00
2012,12,23,00,20,0.00
2012,12,23,00,21,0.00
2012,12,23,00,22,0.00
2012,12,23,00,23,0.00
2012,12,23,00,24,0.00
2012,12,23,00,25,0.00
2012,12,23,00,26,0.00
2012,12,23,00,27,0.00
2012,12,23,00,28,0.00
2012,12,23,00,29,0.00
2012,12,23,00,30,0.00
2012,12,23,00,31,0.00
2012,12,23,00,32,0.00
2012,12,23,00,33,0.00
2012,12,23,00,34,0.00
2012,12,23,00,35,0.00
2012,12,23,00,36,0.00
2012,12,23,00,37,0.00
2012,12,23,00,38,0.00
2012,12,23,00,39,0.00
2012,12,23,00,40,0.00
2012,12,23,00,41,0.00
2012,12,23,00,42,0.00
2012,12,23,00,43,0.00
2012,12,23,00,44,0.00
2012,12,23,00,45,0.00
2012,12,23,00,46,0.00
2012,12,23,00,47,0.00
2012,12,23,00,48,0.00
2012,12,23,00,49,0.00
2012,12,23,00,50,0.00
2012,12,23,00,51,0.00
2012,12,23,00,52,0.00
2012,12,23,00,53,0.00
2012,12,23,00,54,0.00
2012,12,23,00,55,0.00
2012,12,23,00,56,0.00
2012,12,23,00,57,0.00
2012,12,23,00,58,0.00
2012,12,23,00,59,0.00
2012,12,23,01,00,0.00
2012,12,23,01,01,0.00
2012,12,23,01,02,0.00
2012,12,23,01,03,0.00
2012,12,23,01,04,0.00
2012,12,23,01,05,0.00
2012,12,23,01,06,0.00
2012,12,23,01,07,0.00
2012,12,23,01,08,0.00
2012,12,23,01,09,0.00
2012,12,23,01,10,0.00
2012,12,23,01,11,0.00
2012,12,23,01,12,0.00
2012,12,23,01,13,0.00
2012,12,23,01,14,0.00
2012,12,23,01,15,0.00
2012,12,23,01,16,0.00
2012,12,23,01,17,0.00
2012,12,23,01,18,0.00
2012,12,23,01,19,0.00
2012,12,23,01,20,0.00
2012,12,23,01,21,0.00
2012,12,23,01,22,0.00
2012,12,23,01,23,0.00
2012,12,23,01,24,0.00
2012,12,23,01,25,0.00
2012,12,23,01,26,0.00
2012,12,23,01,27,0.00
2012,12,23,01,28,0.00
2012,12,23,01,29,0.00
2012,12,23,01,30,0.00
2012,12,23,01,31,0.00
2012,12,23,01,32,0.00
2012,12,23,01,33,0.00
2012,12,23,01,34,0.00
2012,12,23,01,35,0.00
2012,12,23,01,36,0.00
2012,12,23,01,37,0.00
2012,12,23,01,38,0.00
2012,12,23,01,39,0.00
2012,12,23,01,40,0.00
2012,12,23,01,41,0.00
2012,12,23,01,42,0.00
2012,12,23,01,43,0.00
2012,12,23,01,44,0.00
2012,12,23,01,45,0.00
2012,12,23,01,46,0.00
2012,12,23,01,47,0.00
2012,12,23,01,48,0.00
2012,12,23,01,49,0.00
2012,12,23,01,50,0.00
2012,12,23,01,51,0.00
2012,12,23,01,52,0.00
2012,12,23,01,53,0.00
2012,12,23,01,54,0.00
2012,12,23,01,55,0.00
2012,12,23,01,56,0.00
2012,12,23,01,57,0.00
2012,12,23,01,58,0.00
2012,12,23,01,59,0.00
2012,12,23,02,00,0.00
2012,12,23,02,01,0.00
2012,12,23,02,02,0.00
2012,12,23,02,03,0.00
2012,12,23,02,04,0.00
2012,12,23,02,05,0.00
2012,12,23,02,06,0.00
2012,12,23,02,07,0.00
2012,12,23,02,08,0.00
2012,12,23,02,09,0.00
2012,12,23,02,10,0.00
2012,12,23,02,11,0.00
2012,12,23,02,12,0.00
2012,12,23,02,13,0.00
2012,12,23,02,14,0.00
2012,12,23,02,15,0.00
2012,12,23,02,16,0.00
2012,12,23,02,17,0.00
2012,12,23,02,18,0.00
2012,12,23,02,19,0.00
2012,12,23,02,20,0.00
2012,12,23,02,21,0.00
2012,12,23,02,22,0.00
2012,12,23,02,23,0.00
2012,12,23,02,24,0.00
2012,12,23,02,25,0.00
2012,12,23,02,26,0.00
2012,12,23,02,27,0.00
2012,12,23,02,28,0.00
2012,12,23,02,29,0.00
2012,12,23,02,30,0.00
2012,12,23,02,31,0.00
2012,12,23,02,32,0.00
2012,12,23,02,33,0.00
2012,12,23,02,34,0.00
2012,12,23,02,35,0.00
2012,12,23,02,36,0.00
2012,12,23,02,37,0.00
2012,12,23,02,38,0.00
2012,12,23,02,39,0.00
2012,12,23,02,40,0.00
2012,12,23,02,41,0.00
2012,12,23,02,42,0.00
2012,12,23,02,43,0.00
2012,12,23,02,44,0.00
2012,12,23,02,45,0.00
2012,12,23,02,46,0.00
2012,12,23,02,47,0.00
2012,12,23,02,48,0.00
2012,12,23,02,49,0.00
2012,12,23,02,50,0.00
2012,12,23,02,51,0.00
2012,12,23,02,52,0.00
2012,12,23,02,53,0.00
2012,12,23,02,54,0.00
2012,12,23,02,55,0.00
2012,12,23,02,56,0.00
2012,12,23,02,57,0.00
2012,12,23,02,58,0.00
2012,12,23,02,59,0.00
2012,12,23,03,00,0.00
2012,12,23,03,01,0.00
2012,12,23,03,02,0.00
2012,12,23,03,03,0.00
2012,12,23,03,04,0.00
2012,12,23,03,05,0.00
2012,12,23,03,06,0.00
2012,12,23,03,07,0.00
2012,12,23,03,08,0.00
2012,12,23,03,09,0.00
2012,12,23,03,10,0.00
2012,12,23,03,11,0.00
2012,12,23,03,12,0.00
2012,12,23,03,13,0.00
2012,12,23,03,14,0.00
2012,12,23,03,15,0.00
2012,12,23,03,16,0.00
2012,12,23,03,17,0.00
2012,12,23,03,18,0.00
2012,12,23,03,19,0.00
2012,12,23,03,20,0.00
2012,12,23,03,21,0.00
2012,12,23,03,22,0.00
2012,12,23,03,23,0.00
2012,12,23,03,24,0.00
2012,12,23,03,25,0.00
2012,12,23,03,26,0.00
2012,12,23,03,27,0.00
2012,12,23,03,28,0.00
2012,12,23,03,29,0.00
2012,12,23,03,30,0.00
2012,12,23,03,31,0.00
2012,12,23,03,32,0.00
2012,12,23,03,33,0.00
2012,12,23,03,34,0.00
2012,12,23,03,35,0.00
2012,12,23,03,36,0.00
2012,12,23,03,37,0.00
2012,12,23,03,38,0.00
2012,12,23,03,39,0.00
2012,12,23,03,40,0.00
2012,12,23,03,41,0.00
2012,12,23,03,42,0.00
2012,12,23,03,43,0.00
2012,12,23,03,44,0.00
2012,12,23,03,45,0.00
2012,12,23,03,46,0.00
2012,12,23,03,47,0.00
2012,12,23,03,48,0.00
2012,12,23,03,49,0.00
2012,12,23,03,50,0.00
2012,12,23,03,51,0.00
2012,12,23,03,52,0.00
2012,12,23,03,53,0.00
2012,12,23,03,54,0.00
2012,12,23,03,55,0.00
2012,12,23,03,56,0.00
2012,12,23,03,57,0.00
2012,12,23,03,58,0.00
2012,12,23,03,59,0.00
2012,12,23,04,00,0.00
2012,12,23,04,01,0.00
2012,12,23,04,02,0.00
2012,12,23,04,03,0.00
2012,12,23,04,04,0.00
2012,12,23,04,05,0.00
2012,12,23,04,06,0.00
2012,12,23,04,07,0.00
2012,12,23,04,08,0.00
2012,12,23,04,09,0.00
2012,12,23,04,10,0.00
2012,12,23,04,11,0.00
2012,12,23,04,12,0.00
2012,12,23,04,13,0.00
2012,12,23,04,14,0.00
2012,12,23,04,15,0.00
2012,12,23,04,16,0.00
2012,12,23,04,17,0.00
2012,12,23,04,18,0.00
2012,12,23,04,19,0.00
2012,12,23,04,20,0.00
2012,12,23,04,21,0.00
2012,12,23,04,22,0.00
2012,12,23,04,23,0.00
2012,12,23,04,24,0.00
2012,12,23,04,25,0.00
2012,12,23,04,26,0.00
2012,12,23,04,27,0.00
2012,12,23,04,28,0.00
2012,12,23,04,29,0.00
2012,12,23,04,30,0.00
2012,12,23,04,31,0.00
2012,12,23,04,32,0.00
2012,12,23,04,33,0.00
2012,12,23,04,34,0.00
2012,12,23,04,35,0.00
2012,12,23,04,36,0.00
2012,12,23,04,37,0.00
2012,12,23,04,38,0.00
2012,12,23,04,39,0.00
2012,12,23,04,40,0.00
2012,12,23,04,41,0.00
2012,12,23,04,42,0.00
2012,12,23,04,43,0.00
2012,12,23,04,44,0.00
2012,12,23,04,45,0.00
2012,12,23,04,46,0.00
2012,12,23,04,47,0.00
2012,12,23,04,48,0.00
2012,12,23,04,49,0.00
2012,12,23,04,50,0.00
2012,12,23,04,51,0.00
2012,12,23,04,52,0.00
2012,12,23,04,53,0.00
2012,12,23,04,54,0.00
2012,12,23,04,55,0.00
2012,12,23,04,56,0.00
2012,12,23,04,57,0.00
2012,12,23,04,58,0.00
2012,12,23,04,59,0.00
2012,12,23,05,00,0.00
2012,12,23,05,01,0.00
2012,12,23,05,02,0.00
2012,12,23,05,03,0.00
2012,12,23,05,04,0.00
2012,12,23,05,05,0.00
2012,12,23,05,06,0.00
2012,12,23,05,07,0.00
2012,12,23,05,08,0.00
2012,12,23,05,09,0.00
2012,12,23,05,10,0.00
2012,12,23,05,11,0.00
2012,12,23,05,12,0.00
2012,12,23,05,13,0.00
2012,12,23,05,14,0.00
2012,12,23,05,15,0.00
2012,12,23,05,16,0.00
2012,12,23,05,17,0.00
2012,12,23,05,18,0.00
2012,12,23,05,19,0.00
2012,12,23,05,20,0.00
2012,12,23,05,21,0.00
2012,12,23,05,22,0.00
2012,12,23,05,23,0.00
2012,12,23,05,24,0.00
2012,12,23,05,25,0.00
2012,12,23,05,26,0.00
2012,12,23,05,27,0.00
2012,12,23,05,28,0.00
2012,12,23,05,29,0.00
2012,12,23,05,30,0.00
2012,12,23,05,31,0.00
2012,12,23,05,32,0.00
2012,12,23,05,33,0.00
2012,12,23,05,34,0.00
2012,12,23,05,35,0.00
2012,12,23,05,36,0.00
2012,12,23,05,37,0.00
2012,12,23,05,38,0.00
2012,12,23,05,39,0.00
2012,12,23,05,40,0.00
2012,12,23,05,41,0.00
2012,12,23,05,42,0.00
2012,12,23,05,43,0.00
2012,12,23,05,44,0.00
2012,12,23,05,45,0.00
2012,12,23,05,46,0.00
2012,12,23,05,47,0.00
2012,12,23,05,48,0.00
2012,12,23,05,49,0.00
2012,12,23,05,50,0.00
2012,12,23,05,51,0.00
2012,12,23,05,52,0.00
2012,12,23,05,53,0.00
2012,12,23,05,54,0.00
2012,12,23,05,55,0.00
2012,12,23,05,56,0.00
2012,12,23,05,57,0.00
2012,12,23,05,58,0.00
2012,12,23,05,59,0.00
2012,12,23,06,00,0.00
2012,12,23,06,01,0.00
2012,12,23,06,02,0.00
2012,12,23,06,03,0.00
2012,12,23,06,04,0.00
2012,12,23,06,05,0.00
2012,12,23,06,06,0.00
2012,12,23,06,07,0.00
2012,12,23,06,08,0.00
2012,12,23,06,09,0.00
2012,12,23,06,10,0.00
2012,12,23,06,11,0.00
2012,12,23,06,12,0.00
2012,12,23,06,13,0.00
2012,12,23,06,14,0.00
2012,12,23,06,15,0.00
2012,12,23,06,16,0.00
2012,12,23,06,17,0.00
2012,12,23,06,18,0.00
2012,12,23,06,19,0.00
2012,12,23,06,20,0.00
2012,12,23,06,21,0.00
2012,12,23,06,22,0.00
2012,12,23,06,23,0.00
2012,12,23,06,24,0.00
2012,12,23,06,25,0.00
2012,12,23,06,26,0.00
2012,12,23,06,27,0.00
2012,12,23,06,28,0.00
2012,12,23,06,29,0.00
2012,12,23,06,30,0.00
2012,12,23,06,31,0.00
2012,12,23,06,32,0.00
2012,12,23,06,33,0.00
2012,12,23,06,34,0.00
2012,12,23,06,35,0.00
2012,12,23,06,36,0.00
2012,12,23,06,37,0.00
2012,12,23,06,38,0.00
2012,12,23,06,39,0.00
2012,12,23,06,40,0.00
2012,12,23,06,41,0.00
2012,12,23,06,42,0.00
2012,12,23,06,43,0.00
2012,12,23,06,44,0.00
2012,12,23,06,45,0.00
2012,12,23,06,46,0.00
2012,12,23,06,47,0.00
2012,12,23,06,48,0.00
2012,12,23,06,49,0.00
2012,12,23,06,50,0.00
2012,12,23,06,51,0.00
2012,12,23,06,52,0.00
2012,12,23,06,53,0.00
2012,12,23,06,54,0.00
2012,12,23,06,55,0.00
2012,12,23,06,56,0.00
2012,12,23,06,57,0.00
2012,12,23,06,58,0.00
2012,12,23,06,59,0.00
2012,12,23,07,00,0.00
2012,12,23,07,01,0.00
2012,12,23,07,02,0.00
2012,12,23,07,03,0.00
2012,12,23,07,04,0.00
2012,12,23,07,05,0.00
2012,12,23,07,06,0.00
2012,12,23,07,07,0.00
2012,12,23,07,08,0.00
2012,12,23,07,09,0.00
2012,12,23,07,10,0.00
2012,12,23,07,11,0.00
2012,12,23,07,12,0.00
2012,12,23,07,13,0.00
2012,12,23,07,14,0.00
2012,12,23,07,15,0.00
2012,12,23,07,16,0.00
2012,12,23,07,17,0.00
2012,12,23,07,18,0.00
2012,12,23,07,19,0.00
2012,12,23,07,20,0.00
2012,12,23,07,21,0.00
2012,12,23,07,22,0.00
2012,12,23,07,23,0.00
2012,12,23,07,24,0.00
2012,12,23,07,25,0.00
2012,12,23,07,26,0.00
2012,12,23,07,27,0.00
2012,12,23,07,28,0.00
2012,12,23,07,29,0.00
2012,12,23,07,30,0.00
2012,12,23,07,31,0.00
2012,12,23,07,32,0.00
2012,12,23,07,33,0.00
2012,12,23,07,34,0.00
2012,12,23,07,35,0.00
2012,12,23,07,36,0.00
2012,12,23,07,37,0.00
2012,12,23,07,38,0.00
2012,12,23,07,39,0.00
2012,12,23,07,40,0.00
2012,12,23,07,41,0.00
2012,12,23,07,42,0.00
2012,12,23,07,43,0.00
2012,12,23,07,44,0.00
2012,12,23,07,45,0.00
2012,12,23,07,46,0.00
2012,12,23,07,47,0.00
2012,12,23,07,48,0.00
2012,12,23,07,49,0.00
2012,12,23,07,50,0.00
2012,12,23,07,51,0.00
2012,12,23,07,52,0.00
2012,12,23,07,53,0.00
2012,12,23,07,54,0.00
2012,12,23,07,55,0.00
2012,12,23,07,56,0.00
2012,12,23,07,57,0.00
2012,12,23,07,58,0.00
2012,12,23,07,59,0.00
2012,12,23,08,00,0.00
2012,12,23,08,01,0.00
2012,12,23,08,02,0.00
2012,12,23,08,03,0.00
2012,12,23,08,04,0.00
2012,12,23,08,05,0.00
2012,12,23,08,06,0.00
2012,12,23,08,07,0.00
2012,12,23,08,08,0.00
2012,12,23,08,09,0.00
2012,12,23,08,10,4.00
2012,12,23,08,11,5.00
2012,12,23,08,12,5.50
2012,12,23,08,13,7.00
2012,12,23,08,14,7.00
2012,12,23,08,15,7.00
2012,12,23,08,16,7.00
2012,12,23,08,17,8.90
2012,12,23,08,18,9.00
2012,12,23,08,19,9.00
2012,12,23,08,20,9.00
2012,12,23,08,21,9.00
2012,12,23,08,22,10.70
2012,12,23,08,23,11.00
2012,12,23,08,24,11.20
2012,12,23,08,25,12.00
2012,12,23,08,26,13.10
2012,12,23,08,27,14.00
2012,12,23,08,28,14.00
2012,12,23,08,29,16.00
2012,12,23,08,30,16.00
2012,12,23,08,31,16.00
2012,12,23,08,32,17.20
2012,12,23,08,33,18.00
2012,12,23,08,34,18.00
2012,12,23,08,35,18.20
2012,12,23,08,36,19.00
2012,12,23,08,37,19.00
2012,12,23,08,38,20.30
2012,12,23,08,39,21.00
2012,12,23,08,40,22.80
2012,12,23,08,41,23.40
2012,12,23,08,42,25.00
2012,12,23,08,43,25.00
2012,12,23,08,44,25.70
2012,12,23,08,45,26.00
2012,12,23,08,46,26.00
2012,12,23,08,47,26.00
2012,12,23,08,48,26.00
2012,12,23,08,49,26.00
2012,12,23,08,50,26.00
2012,12,23,08,51,26.00
2012,12,23,08,52,25.00
2012,12,23,08,53,25.00
2012,12,23,08,54,25.00
2012,12,23,08,55,24.00
2012,12,23,08,56,23.00
2012,12,23,08,57,23.00
2012,12,23,08,58,23.00
2012,12,23,08,59,23.00
2012,12,23,09,00,23.70
2012,12,23,09,01,25.00
2012,12,23,09,02,25.00
2012,12,23,09,03,25.80
2012,12,23,09,04,28.30
2012,12,23,09,05,30.60
2012,12,23,09,06,32.50
2012,12,23,09,07,33.00
2012,12,23,09,08,34.50
2012,12,23,09,09,35.00
2012,12,23,09,10,35.00
2012,12,23,09,11,35.00
2012,12,23,09,12,35.00
2012,12,23,09,13,33.80
2012,12,23,09,14,33.00
2012,12,23,09,15,33.00
2012,12,23,09,16,33.40
2012,12,23,09,17,35.00
2012,12,23,09,18,35.00
2012,12,23,09,19,36.30
2012,12,23,09,20,37.00
2012,12,23,09,21,38.90
2012,12,23,09,22,40.00
2012,12,23,09,23,40.80
2012,12,23,09,24,42.00
2012,12,23,09,25,43.20
2012,12,23,09,26,44.00
2012,12,23,09,27,45.80
2012,12,23,09,28,46.20
2012,12,23,09,29,47.70
2012,12,23,09,30,50.00
2012,12,23,09,31,51.00
2012,12,23,09,32,52.60
2012,12,23,09,33,54.00
2012,12,23,09,34,54.50
2012,12,23,09,35,56.90
2012,12,23,09,36,58.00
2012,12,23,09,37,59.40
2012,12,23,09,38,61.60
2012,12,23,09,39,62.10
2012,12,23,09,40,63.00
2012,12,23,09,41,63.80
2012,12,23,09,42,65.00
2012,12,23,09,43,65.00
2012,12,23,09,44,65.00
2012,12,23,09,45,67.30
2012,12,23,09,46,69.30
2012,12,23,09,47,70.90
2012,12,23,09,48,73.20
2012,12,23,09,49,75.50
2012,12,23,09,50,76.90
2012,12,23,09,51,77.00
2012,12,23,09,52,77.00
2012,12,23,09,53,77.00
2012,12,23,09,54,77.00
2012,12,23,09,55,77.00
2012,12,23,09,56,77.10
2012,12,23,09,57,79.00
2012,12,23,09,58,79.00
2012,12,23,09,59,79.00
2012,12,23,10,00,79.00
2012,12,23,10,01,79.00
2012,12,23,10,02,77.20
2012,12,23,10,03,77.00
2012,12,23,10,04,77.00
2012,12,23,10,05,77.00
2012,12,23,10,06,77.00
2012,12,23,10,07,76.20
2012,12,23,10,08,73.80
2012,12,23,10,09,69.30
2012,12,23,10,10,66.30
2012,12,23,10,11,64.00
2012,12,23,10,12,62.30
2012,12,23,10,13,62.80
2012,12,23,10,14,63.20
2012,12,23,10,15,65.50
2012,12,23,10,16,67.00
2012,12,23,10,17,69.60
2012,12,23,10,18,73.30
2012,12,23,10,19,74.00
2012,12,23,10,20,71.80
2012,12,23,10,21,68.70
2012,12,23,10,22,64.20
2012,12,23,10,23,62.40
2012,12,23,10,24,57.80
2012,12,23,10,25,59.30
2012,12,23,10,26,62.90
2012,12,23,10,27,71.90
2012,12,23,10,28,81.30
2012,12,23,10,29,86.40
2012,12,23,10,30,89.40
2012,12,23,10,31,92.60
2012,12,23,10,32,93.30
2012,12,23,10,33,93.80
2012,12,23,10,34,92.70
2012,12,23,10,35,96.80
2012,12,23,10,36,94.30
2012,12,23,10,37,95.10
2012,12,23,10,38,104.20
2012,12,23,10,39,102.70
2012,12,23,10,40,94.50
2012,12,23,10,41,90.40
2012,12,23,10,42,88.40
2012,12,23,10,43,86.20
2012,12,23,10,44,86.00
2012,12,23,10,45,86.70
2012,12,23,10,46,88.00
2012,12,23,10,47,86.60
2012,12,23,10,48,81.90
2012,12,23,10,49,81.20
2012,12,23,10,50,84.90
2012,12,23,10,51,89.10
2012,12,23,10,52,94.30
2012,12,23,10,53,93.10
2012,12,23,10,54,79.40
2012,12,23,10,55,73.80
2012,12,23,10,56,68.20
2012,12,23,10,57,61.80
2012,12,23,10,58,59.00
2012,12,23,10,59,55.30
2012,12,23,11,00,55.70
2012,12,23,11,01,63.60
2012,12,23,11,02,71.00
2012,12,23,11,03,72.00
2012,12,23,11,04,66.80
2012,12,23,11,05,67.80
2012,12,23,11,06,69.00
2012,12,23,11,07,69.30
2012,12,23,11,08,65.00
2012,12,23,11,09,64.10
2012,12,23,11,10,62.40
2012,12,23,11,11,62.00
2012,12,23,11,12,58.50
2012,12,23,11,13,57.50
2012,12,23,11,14,55.20
2012,12,23,11,15,58.90
2012,12,23,11,16,60.00
2012,12,23,11,17,58.50
2012,12,23,11,18,56.30
2012,12,23,11,19,57.60
2012,12,23,11,20,55.00
2012,12,23,11,21,51.00
2012,12,23,11,22,51.40
2012,12,23,11,23,53.80
2012,12,23,11,24,49.30
2012,12,23,11,25,48.20
2012,12,23,11,26,56.70
2012,12,23,11,27,64.40
2012,12,23,11,28,68.20
2012,12,23,11,29,69.00
2012,12,23,11,30,66.70
2012,12,23,11,31,63.80
2012,12,23,11,32,70.00
2012,12,23,11,33,67.30
2012,12,23,11,34,63.00
2012,12,23,11,35,62.80
2012,12,23,11,36,69.60
2012,12,23,11,37,68.10
2012,12,23,11,38,65.00
2012,12,23,11,39,65.00
2012,12,23,11,40,66.30
2012,12,23,11,41,68.70
2012,12,23,11,42,77.60
2012,12,23,11,43,84.00
2012,12,23,11,44,84.00
2012,12,23,11,45,85.10
2012,12,23,11,46,88.90
2012,12,23,11,47,90.00
2012,12,23,11,48,90.30
2012,12,23,11,49,92.50
2012,12,23,11,50,91.00
2012,12,23,11,51,90.40
2012,12,23,11,52,87.20
2012,12,23,11,53,90.30
2012,12,23,11,54,90.20
2012,12,23,11,55,93.10
2012,12,23,11,56,94.80
2012,12,23,11,57,81.00
2012,12,23,11,58,71.00
2012,12,23,11,59,70.00
2012,12,23,12,00,71.50
2012,12,23,12,01,65.20
2012,12,23,12,02,58.00
2012,12,23,12,03,58.00
2012,12,23,12,04,54.10
2012,12,23,12,05,53.00
2012,12,23,12,06,53.20
2012,12,23,12,07,56.70
2012,12,23,12,08,61.00
2012,12,23,12,09,56.20
2012,12,23,12,10,55.60
2012,12,23,12,11,57.80
2012,12,23,12,12,57.10
2012,12,23,12,13,54.00
2012,12,23,12,14,54.00
2012,12,23,12,15,54.00
2012,12,23,12,16,51.70
2012,12,23,12,17,49.30
2012,12,23,12,18,51.40
2012,12,23,12,19,53.00
2012,12,23,12,20,52.00
2012,12,23,12,21,53.00
2012,12,23,12,22,54.00
2012,12,23,12,23,53.70
2012,12,23,12,24,57.50
2012,12,23,12,25,56.00
2012,12,23,12,26,56.00
2012,12,23,12,27,54.60
2012,12,23,12,28,55.70
2012,12,23,12,29,60.40
2012,12,23,12,30,63.00
2012,12,23,12,31,63.00
2012,12,23,12,32,62.40
2012,12,23,12,33,62.00
2012,12,23,12,34,66.30
2012,12,23,12,35,71.70
2012,12,23,12,36,69.70
2012,12,23,12,37,69.40
2012,12,23,12,38,72.30
2012,12,23,12,39,77.70
2012,12,23,12,40,79.00
2012,12,23,12,41,79.90
2012,12,23,12,42,85.30
2012,12,23,12,43,89.00
2012,12,23,12,44,88.80
2012,12,23,12,45,82.80
2012,12,23,12,46,79.30
2012,12,23,12,47,83.80
2012,12,23,12,48,82.30
2012,12,23,12,49,79.10
2012,12,23,12,50,75.10
2012,12,23,12,51,75.60
2012,12,23,12,52,79.10
2012,12,23,12,53,82.50
2012,12,23,12,54,81.80
2012,12,23,12,55,83.50
2012,12,23,12,56,84.00
2012,12,23,12,57,83.20
2012,12,23,12,58,84.00
2012,12,23,12,59,84.50
2012,12,23,13,00,86.80
2012,12,23,13,01,89.00
2012,12,23,13,02,90.70
2012,12,23,13,03,92.70
2012,12,23,13,04,93.00
2012,12,23,13,05,93.00
2012,12,23,13,06,93.00
2012,12,23,13,07,94.10
2012,12,23,13,08,95.00
2012,12,23,13,09,96.70
2012,12,23,13,10,97.00
2012,12,23,13,11,97.00
2012,12,23,13,12,97.40
2012,12,23,13,13,98.00
2012,12,23,13,14,99.50
2012,12,23,13,15,101.70
2012,12,23,13,16,104.20
2012,12,23,13,17,104.70
2012,12,23,13,18,104.00
2012,12,23,13,19,101.70
2012,12,23,13,20,97.80
2012,12,23,13,21,93.30
2012,12,23,13,22,90.50
2012,12,23,13,23,87.40
2012,12,23,13,24,86.00
2012,12,23,13,25,86.00
2012,12,23,13,26,86.00
2012,12,23,13,27,86.00
2012,12,23,13,28,86.00
2012,12,23,13,29,86.00
2012,12,23,13,30,86.00
2012,12,23,13,31,84.70
2012,12,23,13,32,84.00
2012,12,23,13,33,82.90
2012,12,23,13,34,81.00
2012,12,23,13,35,79.70
2012,12,23,13,36,76.50
2012,12,23,13,37,74.60
2012,12,23,13,38,70.70
2012,12,23,13,39,70.00
2012,12,23,13,40,70.00
2012,12,23,13,41,70.80
2012,12,23,13,42,73.00
2012,12,23,13,43,75.30
2012,12,23,13,44,76.00
2012,12,23,13,45,77.00
2012,12,23,13,46,76.70
2012,12,23,13,47,76.00
2012,12,23,13,48,76.00
2012,12,23,13,49,74.50
2012,12,23,13,50,72.30
2012,12,23,13,51,71.70
2012,12,23,13,52,69.70
2012,12,23,13,53,68.10
2012,12,23,13,54,65.90
2012,12,23,13,55,65.00
2012,12,23,13,56,63.30
2012,12,23,13,57,62.00
2012,12,23,13,58,62.00
2012,12,23,13,59,62.00
2012,12,23,14,00,62.00
2012,12,23,14,01,62.80
2012,12,23,14,02,63.00
2012,12,23,14,03,63.40
2012,12,23,14,04,65.00
2012,12,23,14,05,66.00
2012,12,23,14,06,65.80
2012,12,23,14,07,65.00
2012,12,23,14,08,63.20
2012,12,23,14,09,63.00
2012,12,23,14,10,63.00
2012,12,23,14,11,63.00
2012,12,23,14,12,63.00
2012,12,23,14,13,64.50
2012,12,23,14,14,65.00
2012,12,23,14,15,64.60
2012,12,23,14,16,63.00
2012,12,23,14,17,63.00
2012,12,23,14,18,63.00
2012,12,23,14,19,63.00
2012,12,23,14,20,62.00
2012,12,23,14,21,61.60
2012,12,23,14,22,60.00
2012,12,23,14,23,59.00
2012,12,23,14,24,55.30
2012,12,23,14,25,53.20
2012,12,23,14,26,50.90
2012,12,23,14,27,48.50
2012,12,23,14,28,46.60
2012,12,23,14,29,46.00
2012,12,23,14,30,44.60
2012,12,23,14,31,40.70
2012,12,23,14,32,38.70
2012,12,23,14,33,37.00
2012,12,23,14,34,37.00
2012,12,23,14,35,38.10
2012,12,23,14,36,39.70
2012,12,23,14,37,40.00
2012,12,23,14,38,42.00
2012,12,23,14,39,42.60
2012,12,23,14,40,45.30
2012,12,23,14,41,48.10
2012,12,23,14,42,50.50
2012,12,23,14,43,53.70
2012,12,23,14,44,56.00
2012,12,23,14,45,56.00
2012,12,23,14,46,56.00
2012,12,23,14,47,54.80
2012,12,23,14,48,51.80
2012,12,23,14,49,49.10
2012,12,23,14,50,46.80
2012,12,23,14,51,46.00
2012,12,23,14,52,45.00
2012,12,23,14,53,44.00
2012,12,23,14,54,45.60
2012,12,23,14,55,46.00
2012,12,23,14,56,45.60
2012,12,23,14,57,43.30
2012,12,23,14,58,42.00
2012,12,23,14,59,42.00
2012,12,23,15,00,40.40
2012,12,23,15,01,39.00
2012,12,23,15,02,39.00
2012,12,23,15,03,38.20
2012,12,23,15,04,37.00
2012,12,23,15,05,37.00
2012,12,23,15,06,37.00
2012,12,23,15,07,37.00
2012,12,23,15,08,37.00
2012,12,23,15,09,36.20
2012,12,23,15,10,35.00
2012,12,23,15,11,35.00
2012,12,23,15,12,33.30
2012,12,23,15,13,32.90
2012,12,23,15,14,32.00
2012,12,23,15,15,32.00
2012,12,23,15,16,30.90
2012,12,23,15,17,30.00
2012,12,23,15,18,30.00
2012,12,23,15,19,30.00
2012,12,23,15,20,30.00
2012,12,23,15,21,30.00
2012,12,23,15,22,30.00
2012,12,23,15,23,31.50
2012,12,23,15,24,32.00
2012,12,23,15,25,32.00
2012,12,23,15,26,32.30
2012,12,23,15,27,33.00
2012,12,23,15,28,33.00
2012,12,23,15,29,34.50
2012,12,23,15,30,34.90
2012,12,23,15,31,33.00
2012,12,23,15,32,32.70
2012,12,23,15,33,31.00
2012,12,23,15,34,30.00
2012,12,23,15,35,28.50
2012,12,23,15,36,26.10
2012,12,23,15,37,26.00
2012,12,23,15,38,25.60
2012,12,23,15,39,25.00
2012,12,23,15,40,25.00
2012,12,23,15,41,25.00
2012,12,23,15,42,25.10
2012,12,23,15,43,26.00
2012,12,23,15,44,26.80
2012,12,23,15,45,28.00
2012,12,23,15,46,26.70
2012,12,23,15,47,26.00
2012,12,23,15,48,24.90
2012,12,23,15,49,23.00
2012,12,23,15,50,22.10
2012,12,23,15,51,21.00
2012,12,23,15,52,19.60
2012,12,23,15,53,19.00
2012,12,23,15,54,18.00
2012,12,23,15,55,18.00
2012,12,23,15,56,17.20
2012,12,23,15,57,16.00
2012,12,23,15,58,16.00
2012,12,23,15,59,16.00
2012,12,23,16,00,15.70
2012,12,23,16,01,14.00
2012,12,23,16,02,13.10
2012,12,23,16,03,12.00
2012,12,23,16,04,12.00
2012,12,23,16,05,11.10
2012,12,23,16,06,11.00
2012,12,23,16,07,11.00
2012,12,23,16,08,10.10
2012,12,23,16,09,9.00
2012,12,23,16,10,9.00
2012,12,23,16,11,7.20
2012,12,23,16,12,7.00
2012,12,23,16,13,7.00
2012,12,23,16,14,6.00
2012,12,23,16,15,5.00
2012,12,23,16,16,5.00
2012,12,23,16,17,5.00
2012,12,23,16,18,3.80
2012,12,23,16,19,0.00
2012,12,23,16,20,0.00
2012,12,23,16,21,0.00
2012,12,23,16,22,0.00
2012,12,23,16,23,0.00
2012,12,23,16,24,0.00
2012,12,23,16,25,0.00
2012,12,23,16,26,0.00
2012,12,23,16,27,0.00
2012,12,23,16,28,0.00
2012,12,23,16,29,0.00
2012,12,23,16,30,0.00
2012,12,23,16,31,0.00
2012,12,23,16,32,0.00
2012,12,23,16,33,0.00
2012,12,23,16,34,0.00
2012,12,23,16,35,0.00
2012,12,23,16,36,0.00
2012,12,23,16,37,0.00
2012,12,23,16,38,0.00
2012,12,23,16,39,0.00
2012,12,23,16,40,0.00
2012,12,23,16,41,0.00
2012,12,23,16,42,0.00
2012,12,23,16,43,0.00
2012,12,23,16,44,0.00
2012,12,23,16,45,0.00
2012,12,23,16,46,0.00
2012,12,23,16,47,0.00
2012,12,23,16,48,0.00
2012,12,23,16,49,0.00
2012,12,23,16,50,0.00
2012,12,23,16,51,0.00
2012,12,23,16,52,0.00
2012,12,23,16,53,0.00
2012,12,23,16,54,0.00
2012,12,23,16,55,0.00
2012,12,23,16,56,0.00
2012,12,23,16,57,0.00
2012,12,23,16,58,0.00
2012,12,23,16,59,0.00
2012,12,23,17,00,0.00
2012,12,23,17,01,0.00
2012,12,23,17,02,0.00
2012,12,23,17,03,0.00
2012,12,23,17,04,0.00
2012,12,23,17,05,0.00
2012,12,23,17,06,0.00
2012,12,23,17,07,0.00
2012,12,23,17,08,0.00
2012,12,23,17,09,0.00
2012,12,23,17,10,0.00
2012,12,23,17,11,0.00
2012,12,23,17,12,0.00
2012,12,23,17,13,0.00
2012,12,23,17,14,0.00
2012,12,23,17,15,0.00
2012,12,23,17,16,0.00
2012,12,23,17,17,0.00
2012,12,23,17,18,0.00
2012,12,23,17,19,0.00
2012,12,23,17,20,0.00
2012,12,23,17,21,0.00
2012,12,23,17,22,0.00
2012,12,23,17,23,0.00
2012,12,23,17,24,0.00
2012,12,23,17,25,0.00
2012,12,23,17,26,0.00
2012,12,23,17,27,0.00
2012,12,23,17,28,0.00
2012,12,23,17,29,0.00
2012,12,23,17,30,0.00
2012,12,23,17,31,0.00
2012,12,23,17,32,0.00
2012,12,23,17,33,0.00
2012,12,23,17,34,0.00
2012,12,23,17,35,0.00
2012,12,23,17,36,0.00
2012,12,23,17,37,0.00
2012,12,23,17,38,0.00
2012,12,23,17,39,0.00
2012,12,23,17,40,0.00
2012,12,23,17,41,0.00
2012,12,23,17,42,0.00
2012,12,23,17,43,0.00
2012,12,23,17,44,0.00
2012,12,23,17,45,0.00